Change the Weather History Date:

Friday, October 5, 2012

  Actual Average (KFFO) Record (KFFO)
Temperature  
Mean Temperature 56 °F -  
Max Temperature 72 °F 67 °F 86 °F (1997)
Min Temperature 42 °F 44 °F 32 °F (2004)
Degree Days  
Heating Degree Days 8    
Growing Degree Days 6 (Base 50)    
Moisture  
Dew Point 50 °F    
Average Humidity 89    
Maximum Humidity 100    
Minimum Humidity 63    
Precipitation  
Precipitation 0.33 in - - ()
Sea Level Pressure  
Sea Level Pressure 30.05 in    
Wind  
Wind Speed 7 mph (NW)    
Max Wind Speed 13 mph    
Max Gust Speed 22 mph    
Visibility 8 miles    
Events Rain    
Averages and records for this station are not official NWS values.
T = Trace of Precipitation, MM = Missing Value Source: NWS Daily Summary

Daily Weather History Graph

Daily Weather History Graph

Search for Another Location

Airport or City:

Trip Planner

Search our weather history database for the weather conditions in past years. The results will help you decide how hot, cold, wet, or windy it might be!

Date:

Astronomy

Oct. 05, 2012 Rise Set
Actual Time 7:37 AM EDT 7:12 PM EDT
Civil Twilight 7:10 AM EDT 7:39 PM EDT
Nautical Twilight 6:39 AM EDT 8:10 PM EDT
Astronomical Twilight 6:07 AM EDT 8:41 PM EDT
Moon 10:36 PM EDT (10/5) 12:43 PM EDT (10/5)
Length of Visible Light 12h 28m
Length of Day
11h 34m
Waning Gibbous, 74% of the Moon is Illuminated
Oct 5
Waning Gibbous
Oct 8
Last Quarter
Oct 15
New
Oct 21
First Quarter
Oct 29
Full

Hourly Weather History & Observations

Time (EDT) Temp. Windchill Dew Point Humidity Pressure Visibility Wind Dir Wind Speed Gust Speed Precip Events Conditions
12:53 AM 60.1 °F - 55.0 °F 83% 30.12 in 10.0 mi South 8.1 mph - N/A   Clear
1:53 AM 59.0 °F - 55.0 °F 87% 30.13 in 10.0 mi South 4.6 mph - N/A   Clear
2:53 AM 57.0 °F - 54.0 °F 89% 30.11 in 10.0 mi South 8.1 mph - N/A   Clear
4:53 AM 57.0 °F - 55.0 °F 93% 30.10 in 10.0 mi South 6.9 mph - N/A   Clear
5:53 AM 55.9 °F - 54.0 °F 93% 30.11 in 9.0 mi Calm Calm - N/A   Clear
6:53 AM 57.9 °F - 55.0 °F 90% 30.11 in 8.0 mi Calm Calm - N/A   Clear
7:53 AM 57.0 °F - 55.9 °F 96% 30.12 in 5.0 mi Calm Calm - N/A   Clear
8:53 AM 59.0 °F - 55.9 °F 90% 30.12 in 7.0 mi Calm Calm - N/A   Clear
9:53 AM 62.1 °F - 57.0 °F 84% 30.10 in 7.0 mi Calm Calm - N/A   Clear
10:53 AM 64.9 °F - 57.9 °F 78% 30.10 in 8.0 mi Calm Calm - N/A   Partly Cloudy
11:53 AM 66.0 °F - 57.9 °F 75% 30.10 in 10.0 mi West 8.1 mph - N/A   Mostly Cloudy
1:53 PM 69.1 °F - 59.0 °F 70% 30.06 in 10.0 mi SW 4.6 mph - N/A   Scattered Clouds
2:53 PM 71.1 °F - 57.9 °F 63% 30.02 in 10.0 mi WSW 6.9 mph - N/A   Partly Cloudy
3:53 PM 71.1 °F - 57.9 °F 63% 29.99 in 10.0 mi SW 8.1 mph - N/A   Mostly Cloudy
4:53 PM 71.1 °F - 57.9 °F 63% 29.99 in 10.0 mi SW 9.2 mph - N/A   Overcast
5:53 PM 57.0 °F - 52.0 °F 83% 30.00 in 10.0 mi North 8.1 mph - N/A   Overcast
6:38 PM 53.6 °F - 51.8 °F 94% 29.99 in 10.0 mi NW 9.2 mph - N/A   Overcast
6:53 PM 53.1 °F - 50.0 °F 89% 29.99 in 10.0 mi NNW 10.4 mph - N/A   Overcast
7:53 PM 50.0 °F - 48.9 °F 96% 30.01 in 10.0 mi North 9.2 mph - 0.01 in Rain Light Rain
8:43 PM 46.4 °F 41.9 °F 44.6 °F 93% 30.02 in 10.0 mi North 9.2 mph - 0.02 in Rain Light Rain
8:53 PM 46.9 °F - 44.1 °F 90% 30.02 in 10.0 mi North 12.7 mph - 0.02 in Rain Light Rain
9:35 PM 46.4 °F 41.1 °F 44.6 °F 93% 30.01 in 9.0 mi North 11.5 mph - 0.04 in Rain Light Rain
9:43 PM 46.4 °F 41.1 °F 44.6 °F 93% 30.02 in 10.0 mi NW 11.5 mph - 0.04 in Rain Light Rain
9:53 PM 46.0 °F 40.2 °F 45.0 °F 96% 30.02 in 10.0 mi NNW 12.7 mph 21.9 mph 0.04 in   Overcast
10:37 PM 44.6 °F 39.2 °F 42.8 °F 93% 30.01 in 3.0 mi NNW 10.4 mph - 0.09 in Rain Rain
10:41 PM 42.8 °F 36.6 °F 42.8 °F 100% 30.01 in 3.0 mi North 11.5 mph - 0.10 in Rain Rain
10:48 PM 42.8 °F 37.5 °F 42.8 °F 100% 30.02 in 5.0 mi NNW 9.2 mph - 0.11 in Rain Rain
10:53 PM 44.1 °F 39.0 °F 43.0 °F 96% 30.02 in 6.0 mi North 9.2 mph - 0.12 in Rain Rain
11:04 PM 42.8 °F 38.6 °F 42.8 °F 100% 30.01 in 6.0 mi NNW 6.9 mph - 0.02 in Rain Light Rain
11:10 PM 42.8 °F 37.0 °F 42.8 °F 100% 30.02 in 4.0 mi NNW 10.4 mph - 0.04 in Rain Rain
11:18 PM 42.8 °F 37.5 °F 42.8 °F 100% 30.02 in 4.0 mi NNW 9.2 mph - 0.06 in Rain Rain
11:29 PM 42.8 °F 36.6 °F 42.8 °F 100% 30.02 in 5.0 mi North 11.5 mph - 0.08 in Rain Rain
11:53 PM 43.0 °F 36.8 °F 42.1 °F 97% 30.02 in 5.0 mi NNW 11.5 mph 18.4 mph 0.14 in Rain Rain